This is the latest recevied weather packets stored in our database for station/object N7CW. If no packets are shown the sender has not sent any weather packets the latest 10 day(s).
| Time | Temp. | Humidity | Pressure | Rain* | Wind** | Luminosity | Snow |
|---|---|---|---|---|---|---|---|
| 1777679378 | 20° C | 21% | 1014.8 hPa | 0 mm | - | 311 W/m² | - |
| 1777679075 | 20° C | 21% | 1014.8 hPa | 0 mm | - | 140 W/m² | - |
| 1777678774 | 20° C | 21% | 1014.6 hPa | 0 mm | - | 144 W/m² | - |
| 1777678471 | 20.56° C | 21% | 1014.8 hPa | 0 mm | - | 176 W/m² | - |
| 1777678166 | 20.56° C | 20% | 1014.8 hPa | 0 mm | - | 293 W/m² | - |
| 1777677864 | 20.56° C | 20% | 1014.8 hPa | 0 mm | - | 171 W/m² | - |
| 1777677561 | 20.56° C | 21% | 1015.1 hPa | 0 mm | - | 145 W/m² | - |
| 1777677260 | 20° C | 21% | 1014.9 hPa | 0 mm | - | 129 W/m² | - |
| 1777676957 | 20° C | 21% | 1014.9 hPa | 0 mm | - | 147 W/m² | - |
| 1777676656 | 20.56° C | 20% | 1014.7 hPa | 0 mm | - | 377 W/m² | - |
| 1777676353 | 20.56° C | 20% | 1014.7 hPa | 0 mm | - | 318 W/m² | - |
| 1777676050 | 20° C | 20% | 1014.9 hPa | 0 mm | - | 522 W/m² | - |
| 1777675746 | 20.56° C | 21% | 1014.9 hPa | 0 mm | - | 190 W/m² | - |
| 1777675444 | 20° C | 21% | 1015.1 hPa | 0 mm | - | 164 W/m² | - |
| 1777675140 | 19.44° C | 21% | 1015.2 hPa | 0 mm | - | 204 W/m² | - |
| 1777674836 | 20° C | 21% | 1015.2 hPa | 0 mm | - | 143 W/m² | - |
| 1777674533 | 20° C | 21% | 1015.3 hPa | 0 mm | - | 142 W/m² | - |
| 1777674231 | 20° C | 21% | 1015.1 hPa | 0 mm | - | 149 W/m² | - |
| 1777673927 | 20° C | 21% | 1015.1 hPa | 0 mm | - | 172 W/m² | - |
| 1777673623 | 20° C | 21% | 1015.3 hPa | 0 mm | - | 185 W/m² | - |
| 1777673322 | 19.44° C | 21% | 1015.3 hPa | 0 mm | - | 190 W/m² | - |
| 1777673018 | 19.44° C | 21% | 1015.3 hPa | 0 mm | - | 471 W/m² | - |
| 1777672715 | 19.44° C | 22% | 1015.5 hPa | 0 mm | - | 232 W/m² | - |
| 1777672411 | 19.44° C | 21% | 1015.7 hPa | 0 mm | - | 214 W/m² | - |
| 1777672107 | 20° C | 21% | 1015.3 hPa | 0 mm | - | 205 W/m² | - |
* Rain latest hour (hover to see other rain measurements)
** Current wind speed in m/s (hover to see current wind gust speed)